locationName,lineName,date,time,countIn,countOut
�n����ʂ�,3_1_1,2022/5/1,0:00,6,7
�n����ʂ�,3_1_1,2022/5/1,1:00,4,3
�n����ʂ�,3_1_1,2022/5/1,2:00,2,5
�n����ʂ�,3_1_1,2022/5/1,3:00,3,5
�n����ʂ�,3_1_1,2022/5/1,4:00,2,3
�n����ʂ�,3_1_1,2022/5/1,5:00,20,15
�n����ʂ�,3_1_1,2022/5/1,6:00,31,24
�n����ʂ�,3_1_1,2022/5/1,7:00,68,45
�n����ʂ�,3_1_1,2022/5/1,8:00,99,132
�n����ʂ�,3_1_1,2022/5/1,9:00,169,164
�n����ʂ�,3_1_1,2022/5/1,10:00,256,397
�n����ʂ�,3_1_1,2022/5/1,11:00,402,469
�n����ʂ�,3_1_1,2022/5/1,12:00,579,584
�n����ʂ�,3_1_1,2022/5/1,13:00,548,554
�n����ʂ�,3_1_1,2022/5/1,14:00,594,617
�n����ʂ�,3_1_1,2022/5/1,15:00,563,497
�n����ʂ�,3_1_1,2022/5/1,16:00,518,422
�n����ʂ�,3_1_1,2022/5/1,17:00,368,261
�n����ʂ�,3_1_1,2022/5/1,18:00,197,165
�n����ʂ�,3_1_1,2022/5/1,19:00,87,68
�n����ʂ�,3_1_1,2022/5/1,20:00,30,31
�n����ʂ�,3_1_1,2022/5/1,21:00,20,18
�n����ʂ�,3_1_1,2022/5/1,22:00,11,11
�n����ʂ�,3_1_1,2022/5/1,23:00,9,7
�n����ʂ�,3_1_1,2022/5/2,0:00,3,1
�n����ʂ�,3_1_1,2022/5/2,1:00,4,6
�n����ʂ�,3_1_1,2022/5/2,2:00,4,2
�n����ʂ�,3_1_1,2022/5/2,3:00,2,9
�n����ʂ�,3_1_1,2022/5/2,4:00,2,4
�n����ʂ�,3_1_1,2022/5/2,5:00,21,27
�n����ʂ�,3_1_1,2022/5/2,6:00,51,53
�n����ʂ�,3_1_1,2022/5/2,7:00,73,401
�n����ʂ�,3_1_1,2022/5/2,8:00,103,335
�n����ʂ�,3_1_1,2022/5/2,9:00,194,166
�n����ʂ�,3_1_1,2022/5/2,10:00,306,355
�n����ʂ�,3_1_1,2022/5/2,11:00,495,394
�n����ʂ�,3_1_1,2022/5/2,12:00,588,547
�n����ʂ�,3_1_1,2022/5/2,13:00,443,529
�n����ʂ�,3_1_1,2022/5/2,14:00,572,658
�n����ʂ�,3_1_1,2022/5/2,15:00,478,380
�n����ʂ�,3_1_1,2022/5/2,16:00,534,339
�n����ʂ�,3_1_1,2022/5/2,17:00,446,266
�n����ʂ�,3_1_1,2022/5/2,18:00,420,181
�n����ʂ�,3_1_1,2022/5/2,19:00,125,82
�n����ʂ�,3_1_1,2022/5/2,20:00,38,53
�n����ʂ�,3_1_1,2022/5/2,21:00,30,19
�n����ʂ�,3_1_1,2022/5/2,22:00,3,14
�n����ʂ�,3_1_1,2022/5/2,23:00,19,5
�n����ʂ�,3_1_1,2022/5/3,0:00,9,4
�n����ʂ�,3_1_1,2022/5/3,1:00,2,0
�n����ʂ�,3_1_1,2022/5/3,2:00,2,4
�n����ʂ�,3_1_1,2022/5/3,3:00,5,5
�n����ʂ�,3_1_1,2022/5/3,4:00,3,4
�n����ʂ�,3_1_1,2022/5/3,5:00,21,18
�n����ʂ�,3_1_1,2022/5/3,6:00,53,38
�n����ʂ�,3_1_1,2022/5/3,7:00,62,73
�n����ʂ�,3_1_1,2022/5/3,8:00,103,95
�n����ʂ�,3_1_1,2022/5/3,9:00,145,229
�n����ʂ�,3_1_1,2022/5/3,10:00,282,415
�n����ʂ�,3_1_1,2022/5/3,11:00,464,519
�n����ʂ�,3_1_1,2022/5/3,12:00,516,576
�n����ʂ�,3_1_1,2022/5/3,13:00,531,532
�n����ʂ�,3_1_1,2022/5/3,14:00,560,536
�n����ʂ�,3_1_1,2022/5/3,15:00,643,500
�n����ʂ�,3_1_1,2022/5/3,16:00,665,522
�n����ʂ�,3_1_1,2022/5/3,17:00,522,399
�n����ʂ�,3_1_1,2022/5/3,18:00,313,269
�n����ʂ�,3_1_1,2022/5/3,19:00,152,125
�n����ʂ�,3_1_1,2022/5/3,20:00,43,39
�n����ʂ�,3_1_1,2022/5/3,21:00,31,30
�n����ʂ�,3_1_1,2022/5/3,22:00,16,17
�n����ʂ�,3_1_1,2022/5/3,23:00,15,5
�n����ʂ�,3_1_1,2022/5/4,0:00,1,9
�n����ʂ�,3_1_1,2022/5/4,1:00,2,2
�n����ʂ�,3_1_1,2022/5/4,2:00,4,3
�n����ʂ�,3_1_1,2022/5/4,3:00,5,4
�n����ʂ�,3_1_1,2022/5/4,4:00,5,5
�n����ʂ�,3_1_1,2022/5/4,5:00,21,22
�n����ʂ�,3_1_1,2022/5/4,6:00,44,37
�n����ʂ�,3_1_1,2022/5/4,7:00,77,57
�n����ʂ�,3_1_1,2022/5/4,8:00,91,121
�n����ʂ�,3_1_1,2022/5/4,9:00,163,231
�n����ʂ�,3_1_1,2022/5/4,10:00,338,512
�n����ʂ�,3_1_1,2022/5/4,11:00,443,574
�n����ʂ�,3_1_1,2022/5/4,12:00,568,681
�n����ʂ�,3_1_1,2022/5/4,13:00,707,572
�n����ʂ�,3_1_1,2022/5/4,14:00,657,560
�n����ʂ�,3_1_1,2022/5/4,15:00,814,537
�n����ʂ�,3_1_1,2022/5/4,16:00,685,554
�n����ʂ�,3_1_1,2022/5/4,17:00,535,468
�n����ʂ�,3_1_1,2022/5/4,18:00,323,255
�n����ʂ�,3_1_1,2022/5/4,19:00,125,109
�n����ʂ�,3_1_1,2022/5/4,20:00,78,72
�n����ʂ�,3_1_1,2022/5/4,21:00,28,15
�n����ʂ�,3_1_1,2022/5/4,22:00,28,10
�n����ʂ�,3_1_1,2022/5/4,23:00,7,7
�n����ʂ�,3_1_1,2022/5/5,0:00,13,2
�n����ʂ�,3_1_1,2022/5/5,1:00,1,3
�n����ʂ�,3_1_1,2022/5/5,2:00,1,1
�n����ʂ�,3_1_1,2022/5/5,3:00,4,6
�n����ʂ�,3_1_1,2022/5/5,4:00,2,7
�n����ʂ�,3_1_1,2022/5/5,5:00,32,17
�n����ʂ�,3_1_1,2022/5/5,6:00,49,38
�n����ʂ�,3_1_1,2022/5/5,7:00,59,40
�n����ʂ�,3_1_1,2022/5/5,8:00,110,86
�n����ʂ�,3_1_1,2022/5/5,9:00,145,217
�n����ʂ�,3_1_1,2022/5/5,10:00,330,497
�n����ʂ�,3_1_1,2022/5/5,11:00,464,476
�n����ʂ�,3_1_1,2022/5/5,12:00,545,627
�n����ʂ�,3_1_1,2022/5/5,13:00,555,499
�n����ʂ�,3_1_1,2022/5/5,14:00,640,551
�n����ʂ�,3_1_1,2022/5/5,15:00,584,499
�n����ʂ�,3_1_1,2022/5/5,16:00,474,370
�n����ʂ�,3_1_1,2022/5/5,17:00,304,291
�n����ʂ�,3_1_1,2022/5/5,18:00,140,110
�n����ʂ�,3_1_1,2022/5/5,19:00,91,81
�n����ʂ�,3_1_1,2022/5/5,20:00,44,34
�n����ʂ�,3_1_1,2022/5/5,21:00,14,17
�n����ʂ�,3_1_1,2022/5/5,22:00,6,5
�n����ʂ�,3_1_1,2022/5/5,23:00,6,3
�n����ʂ�,3_1_1,2022/5/6,0:00,1,2
�n����ʂ�,3_1_1,2022/5/6,1:00,3,1
�n����ʂ�,3_1_1,2022/5/6,2:00,3,5
�n����ʂ�,3_1_1,2022/5/6,3:00,0,5
�n����ʂ�,3_1_1,2022/5/6,4:00,3,3
�n����ʂ�,3_1_1,2022/5/6,5:00,18,24
�n����ʂ�,3_1_1,2022/5/6,6:00,44,41
�n����ʂ�,3_1_1,2022/5/6,7:00,99,451
�n����ʂ�,3_1_1,2022/5/6,8:00,126,370
�n����ʂ�,3_1_1,2022/5/6,9:00,162,147
�n����ʂ�,3_1_1,2022/5/6,10:00,280,285
�n����ʂ�,3_1_1,2022/5/6,11:00,416,312
�n����ʂ�,3_1_1,2022/5/6,12:00,441,463
�n����ʂ�,3_1_1,2022/5/6,13:00,376,431
�n����ʂ�,3_1_1,2022/5/6,14:00,357,235
�n����ʂ�,3_1_1,2022/5/6,15:00,510,254
�n����ʂ�,3_1_1,2022/5/6,16:00,487,228
�n����ʂ�,3_1_1,2022/5/6,17:00,408,214
�n����ʂ�,3_1_1,2022/5/6,18:00,242,175
�n����ʂ�,3_1_1,2022/5/6,19:00,93,101
�n����ʂ�,3_1_1,2022/5/6,20:00,43,44
�n����ʂ�,3_1_1,2022/5/6,21:00,41,19
�n����ʂ�,3_1_1,2022/5/6,22:00,20,15
�n����ʂ�,3_1_1,2022/5/6,23:00,10,6
�n����ʂ�,3_1_1,2022/5/7,0:00,7,5
�n����ʂ�,3_1_1,2022/5/7,1:00,5,1
�n����ʂ�,3_1_1,2022/5/7,2:00,3,2
�n����ʂ�,3_1_1,2022/5/7,3:00,4,7
�n����ʂ�,3_1_1,2022/5/7,4:00,7,6
�n����ʂ�,3_1_1,2022/5/7,5:00,20,22
�n����ʂ�,3_1_1,2022/5/7,6:00,22,32
�n����ʂ�,3_1_1,2022/5/7,7:00,68,145
�n����ʂ�,3_1_1,2022/5/7,8:00,130,281
�n����ʂ�,3_1_1,2022/5/7,9:00,121,147
�n����ʂ�,3_1_1,2022/5/7,10:00,224,276
�n����ʂ�,3_1_1,2022/5/7,11:00,252,295
�n����ʂ�,3_1_1,2022/5/7,12:00,353,366
�n����ʂ�,3_1_1,2022/5/7,13:00,349,348
�n����ʂ�,3_1_1,2022/5/7,14:00,506,275
�n����ʂ�,3_1_1,2022/5/7,15:00,434,261
�n����ʂ�,3_1_1,2022/5/7,16:00,315,259
�n����ʂ�,3_1_1,2022/5/7,17:00,263,195
�n����ʂ�,3_1_1,2022/5/7,18:00,158,134
�n����ʂ�,3_1_1,2022/5/7,19:00,81,58
�n����ʂ�,3_1_1,2022/5/7,20:00,74,37
�n����ʂ�,3_1_1,2022/5/7,21:00,28,20
�n����ʂ�,3_1_1,2022/5/7,22:00,14,13
�n����ʂ�,3_1_1,2022/5/7,23:00,15,10
�n����ʂ�,3_1_1,2022/5/8,0:00,6,7
�n����ʂ�,3_1_1,2022/5/8,1:00,6,3
�n����ʂ�,3_1_1,2022/5/8,2:00,4,2
�n����ʂ�,3_1_1,2022/5/8,3:00,1,5
�n����ʂ�,3_1_1,2022/5/8,4:00,1,9
�n����ʂ�,3_1_1,2022/5/8,5:00,27,20
�n����ʂ�,3_1_1,2022/5/8,6:00,24,24
�n����ʂ�,3_1_1,2022/5/8,7:00,45,44
�n����ʂ�,3_1_1,2022/5/8,8:00,64,69
�n����ʂ�,3_1_1,2022/5/8,9:00,120,94
�n����ʂ�,3_1_1,2022/5/8,10:00,200,279
�n����ʂ�,3_1_1,2022/5/8,11:00,247,341
�n����ʂ�,3_1_1,2022/5/8,12:00,318,319
�n����ʂ�,3_1_1,2022/5/8,13:00,368,317
�n����ʂ�,3_1_1,2022/5/8,14:00,301,292
�n����ʂ�,3_1_1,2022/5/8,15:00,300,246
�n����ʂ�,3_1_1,2022/5/8,16:00,224,189
�n����ʂ�,3_1_1,2022/5/8,17:00,150,128
�n����ʂ�,3_1_1,2022/5/8,18:00,94,94
�n����ʂ�,3_1_1,2022/5/8,19:00,50,26
�n����ʂ�,3_1_1,2022/5/8,20:00,22,29
�n����ʂ�,3_1_1,2022/5/8,21:00,11,12
�n����ʂ�,3_1_1,2022/5/8,22:00,12,8
�n����ʂ�,3_1_1,2022/5/8,23:00,10,3
�n����ʂ�,3_1_1,2022/5/9,0:00,5,4
�n����ʂ�,3_1_1,2022/5/9,1:00,0,0
�n����ʂ�,3_1_1,2022/5/9,2:00,1,0
�n����ʂ�,3_1_1,2022/5/9,3:00,0,0
�n����ʂ�,3_1_1,2022/5/9,4:00,2,0
�n����ʂ�,3_1_1,2022/5/9,5:00,17,18
�n����ʂ�,3_1_1,2022/5/9,6:00,38,48
�n����ʂ�,3_1_1,2022/5/9,7:00,72,351
�n����ʂ�,3_1_1,2022/5/9,8:00,139,159
�n����ʂ�,3_1_1,2022/5/9,9:00,190,114
�n����ʂ�,3_1_1,2022/5/9,10:00,163,147
�n����ʂ�,3_1_1,2022/5/9,11:00,153,146
�n����ʂ�,3_1_1,2022/5/9,12:00,201,205
�n����ʂ�,3_1_1,2022/5/9,13:00,197,181
�n����ʂ�,3_1_1,2022/5/9,14:00,189,122
�n����ʂ�,3_1_1,2022/5/9,15:00,268,162
�n����ʂ�,3_1_1,2022/5/9,16:00,279,112
�n����ʂ�,3_1_1,2022/5/9,17:00,232,121
�n����ʂ�,3_1_1,2022/5/9,18:00,143,102
�n����ʂ�,3_1_1,2022/5/9,19:00,64,50
�n����ʂ�,3_1_1,2022/5/9,20:00,14,27
�n����ʂ�,3_1_1,2022/5/9,21:00,21,19
�n����ʂ�,3_1_1,2022/5/9,22:00,7,10
�n����ʂ�,3_1_1,2022/5/9,23:00,1,6
�n����ʂ�,3_1_1,2022/5/10,0:00,3,5
�n����ʂ�,3_1_1,2022/5/10,1:00,1,0
�n����ʂ�,3_1_1,2022/5/10,2:00,2,1
�n����ʂ�,3_1_1,2022/5/10,3:00,0,5
�n����ʂ�,3_1_1,2022/5/10,4:00,7,5
�n����ʂ�,3_1_1,2022/5/10,5:00,20,21
�n����ʂ�,3_1_1,2022/5/10,6:00,40,57
�n����ʂ�,3_1_1,2022/5/10,7:00,92,422
�n����ʂ�,3_1_1,2022/5/10,8:00,117,362
�n����ʂ�,3_1_1,2022/5/10,9:00,156,91
�n����ʂ�,3_1_1,2022/5/10,10:00,183,157
�n����ʂ�,3_1_1,2022/5/10,11:00,175,182
�n����ʂ�,3_1_1,2022/5/10,12:00,205,172
�n����ʂ�,3_1_1,2022/5/10,13:00,175,151
�n����ʂ�,3_1_1,2022/5/10,14:00,165,132
�n����ʂ�,3_1_1,2022/5/10,15:00,167,116
�n����ʂ�,3_1_1,2022/5/10,16:00,445,146
�n����ʂ�,3_1_1,2022/5/10,17:00,350,166
�n����ʂ�,3_1_1,2022/5/10,18:00,179,123
�n����ʂ�,3_1_1,2022/5/10,19:00,80,65
�n����ʂ�,3_1_1,2022/5/10,20:00,33,32
�n����ʂ�,3_1_1,2022/5/10,21:00,15,11
�n����ʂ�,3_1_1,2022/5/10,22:00,16,8
�n����ʂ�,3_1_1,2022/5/10,23:00,4,3
�n����ʂ�,3_1_1,2022/5/11,0:00,3,4
�n����ʂ�,3_1_1,2022/5/11,1:00,6,2
�n����ʂ�,3_1_1,2022/5/11,2:00,1,2
�n����ʂ�,3_1_1,2022/5/11,3:00,1,9
�n����ʂ�,3_1_1,2022/5/11,4:00,4,5
�n����ʂ�,3_1_1,2022/5/11,5:00,25,23
�n����ʂ�,3_1_1,2022/5/11,6:00,41,45
�n����ʂ�,3_1_1,2022/5/11,7:00,59,181
�n����ʂ�,3_1_1,2022/5/11,8:00,67,219
�n����ʂ�,3_1_1,2022/5/11,9:00,114,84
�n����ʂ�,3_1_1,2022/5/11,10:00,171,98
�n����ʂ�,3_1_1,2022/5/11,11:00,135,113
�n����ʂ�,3_1_1,2022/5/11,12:00,233,137
�n����ʂ�,3_1_1,2022/5/11,13:00,158,149
�n����ʂ�,3_1_1,2022/5/11,14:00,162,109
�n����ʂ�,3_1_1,2022/5/11,15:00,159,121
�n����ʂ�,3_1_1,2022/5/11,16:00,197,102
�n����ʂ�,3_1_1,2022/5/11,17:00,204,116
�n����ʂ�,3_1_1,2022/5/11,18:00,147,89
�n����ʂ�,3_1_1,2022/5/11,19:00,65,49
�n����ʂ�,3_1_1,2022/5/11,20:00,38,29
�n����ʂ�,3_1_1,2022/5/11,21:00,55,47
�n����ʂ�,3_1_1,2022/5/11,22:00,19,7
�n����ʂ�,3_1_1,2022/5/11,23:00,1,4
�n����ʂ�,3_1_1,2022/5/12,0:00,2,0
�n����ʂ�,3_1_1,2022/5/12,1:00,0,1
�n����ʂ�,3_1_1,2022/5/12,2:00,1,3
�n����ʂ�,3_1_1,2022/5/12,3:00,5,8
�n����ʂ�,3_1_1,2022/5/12,4:00,5,5
�n����ʂ�,3_1_1,2022/5/12,5:00,20,20
�n����ʂ�,3_1_1,2022/5/12,6:00,32,39
�n����ʂ�,3_1_1,2022/5/12,7:00,50,273
�n����ʂ�,3_1_1,2022/5/12,8:00,85,213
�n����ʂ�,3_1_1,2022/5/12,9:00,97,95
�n����ʂ�,3_1_1,2022/5/12,10:00,208,117
�n����ʂ�,3_1_1,2022/5/12,11:00,241,111
�n����ʂ�,3_1_1,2022/5/12,12:00,259,158
�n����ʂ�,3_1_1,2022/5/12,13:00,175,129
�n����ʂ�,3_1_1,2022/5/12,14:00,121,108
�n����ʂ�,3_1_1,2022/5/12,15:00,101,89
�n����ʂ�,3_1_1,2022/5/12,16:00,124,98
�n����ʂ�,3_1_1,2022/5/12,17:00,165,122
�n����ʂ�,3_1_1,2022/5/12,18:00,120,96
�n����ʂ�,3_1_1,2022/5/12,19:00,57,43
�n����ʂ�,3_1_1,2022/5/12,20:00,24,26
�n����ʂ�,3_1_1,2022/5/12,21:00,16,5
�n����ʂ�,3_1_1,2022/5/12,22:00,12,5
�n����ʂ�,3_1_1,2022/5/12,23:00,3,4
�n����ʂ�,3_1_1,2022/5/13,0:00,1,1
�n����ʂ�,3_1_1,2022/5/13,1:00,1,0
�n����ʂ�,3_1_1,2022/5/13,2:00,2,3
�n����ʂ�,3_1_1,2022/5/13,3:00,2,7
�n����ʂ�,3_1_1,2022/5/13,4:00,5,2
�n����ʂ�,3_1_1,2022/5/13,5:00,20,27
�n����ʂ�,3_1_1,2022/5/13,6:00,35,49
�n����ʂ�,3_1_1,2022/5/13,7:00,52,170
�n����ʂ�,3_1_1,2022/5/13,8:00,72,196
�n����ʂ�,3_1_1,2022/5/13,9:00,130,122
�n����ʂ�,3_1_1,2022/5/13,10:00,122,97
�n����ʂ�,3_1_1,2022/5/13,11:00,160,86
�n����ʂ�,3_1_1,2022/5/13,12:00,257,142
�n����ʂ�,3_1_1,2022/5/13,13:00,204,115
�n����ʂ�,3_1_1,2022/5/13,14:00,135,106
�n����ʂ�,3_1_1,2022/5/13,15:00,153,86
�n����ʂ�,3_1_1,2022/5/13,16:00,168,109
�n����ʂ�,3_1_1,2022/5/13,17:00,195,113
�n����ʂ�,3_1_1,2022/5/13,18:00,125,88
�n����ʂ�,3_1_1,2022/5/13,19:00,48,58
�n����ʂ�,3_1_1,2022/5/13,20:00,7,13
�n����ʂ�,3_1_1,2022/5/13,21:00,15,12
�n����ʂ�,3_1_1,2022/5/13,22:00,7,8
�n����ʂ�,3_1_1,2022/5/13,23:00,5,4
�n����ʂ�,3_1_1,2022/5/14,0:00,2,1
�n����ʂ�,3_1_1,2022/5/14,1:00,3,0
�n����ʂ�,3_1_1,2022/5/14,2:00,3,2
�n����ʂ�,3_1_1,2022/5/14,3:00,2,8
�n����ʂ�,3_1_1,2022/5/14,4:00,3,3
�n����ʂ�,3_1_1,2022/5/14,5:00,23,19
�n����ʂ�,3_1_1,2022/5/14,6:00,30,36
�n����ʂ�,3_1_1,2022/5/14,7:00,57,60
�n����ʂ�,3_1_1,2022/5/14,8:00,92,113
�n����ʂ�,3_1_1,2022/5/14,9:00,131,130
�n����ʂ�,3_1_1,2022/5/14,10:00,215,208
�n����ʂ�,3_1_1,2022/5/14,11:00,200,265
�n����ʂ�,3_1_1,2022/5/14,12:00,316,288
�n����ʂ�,3_1_1,2022/5/14,13:00,318,255
�n����ʂ�,3_1_1,2022/5/14,14:00,301,265
�n����ʂ�,3_1_1,2022/5/14,15:00,338,199
�n����ʂ�,3_1_1,2022/5/14,16:00,246,264
�n����ʂ�,3_1_1,2022/5/14,17:00,239,169
�n����ʂ�,3_1_1,2022/5/14,18:00,168,134
�n����ʂ�,3_1_1,2022/5/14,19:00,74,77
�n����ʂ�,3_1_1,2022/5/14,20:00,28,24
�n����ʂ�,3_1_1,2022/5/14,21:00,27,24
�n����ʂ�,3_1_1,2022/5/14,22:00,11,13
�n����ʂ�,3_1_1,2022/5/14,23:00,13,8
�n����ʂ�,3_1_1,2022/5/15,0:00,6,2
�n����ʂ�,3_1_1,2022/5/15,1:00,3,2
�n����ʂ�,3_1_1,2022/5/15,2:00,2,4
�n����ʂ�,3_1_1,2022/5/15,3:00,0,5
�n����ʂ�,3_1_1,2022/5/15,4:00,5,3
�n����ʂ�,3_1_1,2022/5/15,5:00,18,25
�n����ʂ�,3_1_1,2022/5/15,6:00,20,23
�n����ʂ�,3_1_1,2022/5/15,7:00,51,116
�n����ʂ�,3_1_1,2022/5/15,8:00,82,227
�n����ʂ�,3_1_1,2022/5/15,9:00,144,118
�n����ʂ�,3_1_1,2022/5/15,10:00,187,198
�n����ʂ�,3_1_1,2022/5/15,11:00,253,244
�n����ʂ�,3_1_1,2022/5/15,12:00,335,296
�n����ʂ�,3_1_1,2022/5/15,13:00,338,356
�n����ʂ�,3_1_1,2022/5/15,14:00,481,292
�n����ʂ�,3_1_1,2022/5/15,15:00,365,279
�n����ʂ�,3_1_1,2022/5/15,16:00,250,169
�n����ʂ�,3_1_1,2022/5/15,17:00,244,143
�n����ʂ�,3_1_1,2022/5/15,18:00,126,104
�n����ʂ�,3_1_1,2022/5/15,19:00,44,33
�n����ʂ�,3_1_1,2022/5/15,20:00,28,24
�n����ʂ�,3_1_1,2022/5/15,21:00,27,21
�n����ʂ�,3_1_1,2022/5/15,22:00,15,8
�n����ʂ�,3_1_1,2022/5/15,23:00,2,3
�n����ʂ�,3_1_1,2022/5/16,0:00,0,4
�n����ʂ�,3_1_1,2022/5/16,1:00,2,0
�n����ʂ�,3_1_1,2022/5/16,2:00,1,2
�n����ʂ�,3_1_1,2022/5/16,3:00,2,8
�n����ʂ�,3_1_1,2022/5/16,4:00,6,4
�n����ʂ�,3_1_1,2022/5/16,5:00,21,31
�n����ʂ�,3_1_1,2022/5/16,6:00,38,56
�n����ʂ�,3_1_1,2022/5/16,7:00,93,413
�n����ʂ�,3_1_1,2022/5/16,8:00,120,378
�n����ʂ�,3_1_1,2022/5/16,9:00,174,127
�n����ʂ�,3_1_1,2022/5/16,10:00,186,158
�n����ʂ�,3_1_1,2022/5/16,11:00,177,177
�n����ʂ�,3_1_1,2022/5/16,12:00,259,246
�n����ʂ�,3_1_1,2022/5/16,13:00,198,191
�n����ʂ�,3_1_1,2022/5/16,14:00,210,161
�n����ʂ�,3_1_1,2022/5/16,15:00,286,205
�n����ʂ�,3_1_1,2022/5/16,16:00,256,167
�n����ʂ�,3_1_1,2022/5/16,17:00,308,148
�n����ʂ�,3_1_1,2022/5/16,18:00,395,119
�n����ʂ�,3_1_1,2022/5/16,19:00,77,70
�n����ʂ�,3_1_1,2022/5/16,20:00,20,30
�n����ʂ�,3_1_1,2022/5/16,21:00,21,16
�n����ʂ�,3_1_1,2022/5/16,22:00,11,7
�n����ʂ�,3_1_1,2022/5/16,23:00,1,6
�n����ʂ�,3_1_1,2022/5/17,0:00,2,3
�n����ʂ�,3_1_1,2022/5/17,1:00,1,0
�n����ʂ�,3_1_1,2022/5/17,2:00,1,2
�n����ʂ�,3_1_1,2022/5/17,3:00,2,10
�n����ʂ�,3_1_1,2022/5/17,4:00,2,4
�n����ʂ�,3_1_1,2022/5/17,5:00,19,24
�n����ʂ�,3_1_1,2022/5/17,6:00,47,62
�n����ʂ�,3_1_1,2022/5/17,7:00,91,380
�n����ʂ�,3_1_1,2022/5/17,8:00,104,371
�n����ʂ�,3_1_1,2022/5/17,9:00,169,124
�n����ʂ�,3_1_1,2022/5/17,10:00,171,171
�n����ʂ�,3_1_1,2022/5/17,11:00,170,160
�n����ʂ�,3_1_1,2022/5/17,12:00,224,205
�n����ʂ�,3_1_1,2022/5/17,13:00,180,164
�n����ʂ�,3_1_1,2022/5/17,14:00,180,114
�n����ʂ�,3_1_1,2022/5/17,15:00,152,118
�n����ʂ�,3_1_1,2022/5/17,16:00,343,157
�n����ʂ�,3_1_1,2022/5/17,17:00,282,104
�n����ʂ�,3_1_1,2022/5/17,18:00,452,141
�n����ʂ�,3_1_1,2022/5/17,19:00,57,67
�n����ʂ�,3_1_1,2022/5/17,20:00,20,28
�n����ʂ�,3_1_1,2022/5/17,21:00,36,22
�n����ʂ�,3_1_1,2022/5/17,22:00,4,9
�n����ʂ�,3_1_1,2022/5/17,23:00,3,4
�n����ʂ�,3_1_1,2022/5/18,0:00,2,4
�n����ʂ�,3_1_1,2022/5/18,1:00,2,0
�n����ʂ�,3_1_1,2022/5/18,2:00,2,2
�n����ʂ�,3_1_1,2022/5/18,3:00,1,5
�n����ʂ�,3_1_1,2022/5/18,4:00,6,4
�n����ʂ�,3_1_1,2022/5/18,5:00,24,24
�n����ʂ�,3_1_1,2022/5/18,6:00,51,79
�n����ʂ�,3_1_1,2022/5/18,7:00,105,476
�n����ʂ�,3_1_1,2022/5/18,8:00,109,346
�n����ʂ�,3_1_1,2022/5/18,9:00,122,97
�n����ʂ�,3_1_1,2022/5/18,10:00,145,167
�n����ʂ�,3_1_1,2022/5/18,11:00,209,199
�n����ʂ�,3_1_1,2022/5/18,12:00,195,252
�n����ʂ�,3_1_1,2022/5/18,13:00,230,191
�n����ʂ�,3_1_1,2022/5/18,14:00,195,144
�n����ʂ�,3_1_1,2022/5/18,15:00,257,96
�n����ʂ�,3_1_1,2022/5/18,16:00,417,118
�n����ʂ�,3_1_1,2022/5/18,17:00,283,116
�n����ʂ�,3_1_1,2022/5/18,18:00,148,117
�n����ʂ�,3_1_1,2022/5/18,19:00,79,62
�n����ʂ�,3_1_1,2022/5/18,20:00,29,34
�n����ʂ�,3_1_1,2022/5/18,21:00,28,16
�n����ʂ�,3_1_1,2022/5/18,22:00,10,10
�n����ʂ�,3_1_1,2022/5/18,23:00,3,4
�n����ʂ�,3_1_1,2022/5/19,0:00,0,1
�n����ʂ�,3_1_1,2022/5/19,1:00,2,1
�n����ʂ�,3_1_1,2022/5/19,2:00,0,4
�n����ʂ�,3_1_1,2022/5/19,3:00,2,6
�n����ʂ�,3_1_1,2022/5/19,4:00,4,5
�n����ʂ�,3_1_1,2022/5/19,5:00,32,25
�n����ʂ�,3_1_1,2022/5/19,6:00,39,67
�n����ʂ�,3_1_1,2022/5/19,7:00,107,470
�n����ʂ�,3_1_1,2022/5/19,8:00,112,360
�n����ʂ�,3_1_1,2022/5/19,9:00,148,99
�n����ʂ�,3_1_1,2022/5/19,10:00,163,151
�n����ʂ�,3_1_1,2022/5/19,11:00,163,187
�n����ʂ�,3_1_1,2022/5/19,12:00,214,202
�n����ʂ�,3_1_1,2022/5/19,13:00,179,155
�n����ʂ�,3_1_1,2022/5/19,14:00,157,135
�n����ʂ�,3_1_1,2022/5/19,15:00,163,194
�n����ʂ�,3_1_1,2022/5/19,16:00,267,148
�n����ʂ�,3_1_1,2022/5/19,17:00,289,139
�n����ʂ�,3_1_1,2022/5/19,18:00,454,105
�n����ʂ�,3_1_1,2022/5/19,19:00,68,60
�n����ʂ�,3_1_1,2022/5/19,20:00,28,22
�n����ʂ�,3_1_1,2022/5/19,21:00,28,14
�n����ʂ�,3_1_1,2022/5/19,22:00,11,9
�n����ʂ�,3_1_1,2022/5/19,23:00,3,9
�n����ʂ�,3_1_1,2022/5/20,0:00,5,2
�n����ʂ�,3_1_1,2022/5/20,1:00,2,6
�n����ʂ�,3_1_1,2022/5/20,2:00,1,4
�n����ʂ�,3_1_1,2022/5/20,3:00,2,7
�n����ʂ�,3_1_1,2022/5/20,4:00,4,3
�n����ʂ�,3_1_1,2022/5/20,5:00,17,23
�n����ʂ�,3_1_1,2022/5/20,6:00,38,53
�n����ʂ�,3_1_1,2022/5/20,7:00,95,405
�n����ʂ�,3_1_1,2022/5/20,8:00,122,356
�n����ʂ�,3_1_1,2022/5/20,9:00,164,94
�n����ʂ�,3_1_1,2022/5/20,10:00,184,166
�n����ʂ�,3_1_1,2022/5/20,11:00,165,154
�n����ʂ�,3_1_1,2022/5/20,12:00,203,187
�n����ʂ�,3_1_1,2022/5/20,13:00,220,191
�n����ʂ�,3_1_1,2022/5/20,14:00,210,174
�n����ʂ�,3_1_1,2022/5/20,15:00,266,176
�n����ʂ�,3_1_1,2022/5/20,16:00,246,152
�n����ʂ�,3_1_1,2022/5/20,17:00,311,155
�n����ʂ�,3_1_1,2022/5/20,18:00,379,154
�n����ʂ�,3_1_1,2022/5/20,19:00,80,82
�n����ʂ�,3_1_1,2022/5/20,20:00,27,37
�n����ʂ�,3_1_1,2022/5/20,21:00,36,25
�n����ʂ�,3_1_1,2022/5/20,22:00,10,16
�n����ʂ�,3_1_1,2022/5/20,23:00,18,7
�n����ʂ�,3_1_1,2022/5/21,0:00,9,3
�n����ʂ�,3_1_1,2022/5/21,1:00,3,1
�n����ʂ�,3_1_1,2022/5/21,2:00,4,3
�n����ʂ�,3_1_1,2022/5/21,3:00,1,6
�n����ʂ�,3_1_1,2022/5/21,4:00,7,8
�n����ʂ�,3_1_1,2022/5/21,5:00,28,20
�n����ʂ�,3_1_1,2022/5/21,6:00,26,23
�n����ʂ�,3_1_1,2022/5/21,7:00,67,90
�n����ʂ�,3_1_1,2022/5/21,8:00,98,128
�n����ʂ�,3_1_1,2022/5/21,9:00,117,125
�n����ʂ�,3_1_1,2022/5/21,10:00,200,227
�n����ʂ�,3_1_1,2022/5/21,11:00,217,321
�n����ʂ�,3_1_1,2022/5/21,12:00,367,341
�n����ʂ�,3_1_1,2022/5/21,13:00,316,322
�n����ʂ�,3_1_1,2022/5/21,14:00,328,283
�n����ʂ�,3_1_1,2022/5/21,15:00,312,276
�n����ʂ�,3_1_1,2022/5/21,16:00,255,234
�n����ʂ�,3_1_1,2022/5/21,17:00,232,164
�n����ʂ�,3_1_1,2022/5/21,18:00,159,173
�n����ʂ�,3_1_1,2022/5/21,19:00,76,49
�n����ʂ�,3_1_1,2022/5/21,20:00,38,41
�n����ʂ�,3_1_1,2022/5/21,21:00,27,21
�n����ʂ�,3_1_1,2022/5/21,22:00,19,14
�n����ʂ�,3_1_1,2022/5/21,23:00,9,6
�n����ʂ�,3_1_1,2022/5/22,0:00,4,3
�n����ʂ�,3_1_1,2022/5/22,1:00,9,1
�n����ʂ�,3_1_1,2022/5/22,2:00,3,5
�n����ʂ�,3_1_1,2022/5/22,3:00,4,3
�n����ʂ�,3_1_1,2022/5/22,4:00,4,8
�n����ʂ�,3_1_1,2022/5/22,5:00,38,27
�n����ʂ�,3_1_1,2022/5/22,6:00,32,60
�n����ʂ�,3_1_1,2022/5/22,7:00,41,65
�n����ʂ�,3_1_1,2022/5/22,8:00,76,87
�n����ʂ�,3_1_1,2022/5/22,9:00,103,137
�n����ʂ�,3_1_1,2022/5/22,10:00,206,296
�n����ʂ�,3_1_1,2022/5/22,11:00,329,430
�n����ʂ�,3_1_1,2022/5/22,12:00,366,411
�n����ʂ�,3_1_1,2022/5/22,13:00,392,361
�n����ʂ�,3_1_1,2022/5/22,14:00,359,321
�n����ʂ�,3_1_1,2022/5/22,15:00,348,270
�n����ʂ�,3_1_1,2022/5/22,16:00,289,258
�n����ʂ�,3_1_1,2022/5/22,17:00,182,136
�n����ʂ�,3_1_1,2022/5/22,18:00,132,81
�n����ʂ�,3_1_1,2022/5/22,19:00,53,62
�n����ʂ�,3_1_1,2022/5/22,20:00,21,36
�n����ʂ�,3_1_1,2022/5/22,21:00,12,16
�n����ʂ�,3_1_1,2022/5/22,22:00,8,5
�n����ʂ�,3_1_1,2022/5/22,23:00,1,4
�n����ʂ�,3_1_1,2022/5/23,0:00,5,4
�n����ʂ�,3_1_1,2022/5/23,1:00,3,2
�n����ʂ�,3_1_1,2022/5/23,2:00,1,3
�n����ʂ�,3_1_1,2022/5/23,3:00,1,5
�n����ʂ�,3_1_1,2022/5/23,4:00,5,2
�n����ʂ�,3_1_1,2022/5/23,5:00,26,21
�n����ʂ�,3_1_1,2022/5/23,6:00,45,52
�n����ʂ�,3_1_1,2022/5/23,7:00,98,468
�n����ʂ�,3_1_1,2022/5/23,8:00,109,345
�n����ʂ�,3_1_1,2022/5/23,9:00,141,117
�n����ʂ�,3_1_1,2022/5/23,10:00,166,173
�n����ʂ�,3_1_1,2022/5/23,11:00,178,158
�n����ʂ�,3_1_1,2022/5/23,12:00,225,206
�n����ʂ�,3_1_1,2022/5/23,13:00,232,195
�n����ʂ�,3_1_1,2022/5/23,14:00,193,169
�n����ʂ�,3_1_1,2022/5/23,15:00,252,134
�n����ʂ�,3_1_1,2022/5/23,16:00,267,148
�n����ʂ�,3_1_1,2022/5/23,17:00,271,124
�n����ʂ�,3_1_1,2022/5/23,18:00,399,86
�n����ʂ�,3_1_1,2022/5/23,19:00,63,90
�n����ʂ�,3_1_1,2022/5/23,20:00,26,35
�n����ʂ�,3_1_1,2022/5/23,21:00,20,9
�n����ʂ�,3_1_1,2022/5/23,22:00,6,5
�n����ʂ�,3_1_1,2022/5/23,23:00,0,7
�n����ʂ�,3_1_1,2022/5/24,0:00,3,0
�n����ʂ�,3_1_1,2022/5/24,1:00,0,0
�n����ʂ�,3_1_1,2022/5/24,2:00,3,2
�n����ʂ�,3_1_1,2022/5/24,3:00,4,6
�n����ʂ�,3_1_1,2022/5/24,4:00,5,4
�n����ʂ�,3_1_1,2022/5/24,5:00,27,40
�n����ʂ�,3_1_1,2022/5/24,6:00,47,58
�n����ʂ�,3_1_1,2022/5/24,7:00,102,486
�n����ʂ�,3_1_1,2022/5/24,8:00,113,364
�n����ʂ�,3_1_1,2022/5/24,9:00,127,110
�n����ʂ�,3_1_1,2022/5/24,10:00,156,133
�n����ʂ�,3_1_1,2022/5/24,11:00,159,144
�n����ʂ�,3_1_1,2022/5/24,12:00,173,190
�n����ʂ�,3_1_1,2022/5/24,13:00,177,135
�n����ʂ�,3_1_1,2022/5/24,14:00,185,147
�n����ʂ�,3_1_1,2022/5/24,15:00,157,112
�n����ʂ�,3_1_1,2022/5/24,16:00,219,122
�n����ʂ�,3_1_1,2022/5/24,17:00,283,118
�n����ʂ�,3_1_1,2022/5/24,18:00,431,108
�n����ʂ�,3_1_1,2022/5/24,19:00,84,101
�n����ʂ�,3_1_1,2022/5/24,20:00,29,41
�n����ʂ�,3_1_1,2022/5/24,21:00,30,22
�n����ʂ�,3_1_1,2022/5/24,22:00,21,6
�n����ʂ�,3_1_1,2022/5/24,23:00,5,12
�n����ʂ�,3_1_1,2022/5/25,0:00,5,1
�n����ʂ�,3_1_1,2022/5/25,1:00,2,3
�n����ʂ�,3_1_1,2022/5/25,2:00,4,3
�n����ʂ�,3_1_1,2022/5/25,3:00,3,4
�n����ʂ�,3_1_1,2022/5/25,4:00,3,8
�n����ʂ�,3_1_1,2022/5/25,5:00,25,23
�n����ʂ�,3_1_1,2022/5/25,6:00,36,62
�n����ʂ�,3_1_1,2022/5/25,7:00,106,490
�n����ʂ�,3_1_1,2022/5/25,8:00,138,348
�n����ʂ�,3_1_1,2022/5/25,9:00,159,113
�n����ʂ�,3_1_1,2022/5/25,10:00,155,179
�n����ʂ�,3_1_1,2022/5/25,11:00,185,193
�n����ʂ�,3_1_1,2022/5/25,12:00,200,232
�n����ʂ�,3_1_1,2022/5/25,13:00,198,144
�n����ʂ�,3_1_1,2022/5/25,14:00,190,104
�n����ʂ�,3_1_1,2022/5/25,15:00,244,105
�n����ʂ�,3_1_1,2022/5/25,16:00,358,160
�n����ʂ�,3_1_1,2022/5/25,17:00,306,130
�n����ʂ�,3_1_1,2022/5/25,18:00,209,130
�n����ʂ�,3_1_1,2022/5/25,19:00,96,90
�n����ʂ�,3_1_1,2022/5/25,20:00,38,38
�n����ʂ�,3_1_1,2022/5/25,21:00,29,21
�n����ʂ�,3_1_1,2022/5/25,22:00,10,9
�n����ʂ�,3_1_1,2022/5/25,23:00,3,14
�n����ʂ�,3_1_1,2022/5/26,0:00,3,3
�n����ʂ�,3_1_1,2022/5/26,1:00,6,0
�n����ʂ�,3_1_1,2022/5/26,2:00,3,2
�n����ʂ�,3_1_1,2022/5/26,3:00,3,6
�n����ʂ�,3_1_1,2022/5/26,4:00,4,5
�n����ʂ�,3_1_1,2022/5/26,5:00,26,19
�n����ʂ�,3_1_1,2022/5/26,6:00,46,53
�n����ʂ�,3_1_1,2022/5/26,7:00,74,351
�n����ʂ�,3_1_1,2022/5/26,8:00,84,278
�n����ʂ�,3_1_1,2022/5/26,9:00,155,111
�n����ʂ�,3_1_1,2022/5/26,10:00,161,157
�n����ʂ�,3_1_1,2022/5/26,11:00,150,104
�n����ʂ�,3_1_1,2022/5/26,12:00,167,145
�n����ʂ�,3_1_1,2022/5/26,13:00,159,123
�n����ʂ�,3_1_1,2022/5/26,14:00,153,124
�n����ʂ�,3_1_1,2022/5/26,15:00,107,118
�n����ʂ�,3_1_1,2022/5/26,16:00,174,82
�n����ʂ�,3_1_1,2022/5/26,17:00,280,155
�n����ʂ�,3_1_1,2022/5/26,18:00,235,71
�n����ʂ�,3_1_1,2022/5/26,19:00,62,59
�n����ʂ�,3_1_1,2022/5/26,20:00,15,22
�n����ʂ�,3_1_1,2022/5/26,21:00,26,8
�n����ʂ�,3_1_1,2022/5/26,22:00,17,10
�n����ʂ�,3_1_1,2022/5/26,23:00,9,7
�n����ʂ�,3_1_1,2022/5/27,0:00,2,4
�n����ʂ�,3_1_1,2022/5/27,1:00,2,0
�n����ʂ�,3_1_1,2022/5/27,2:00,2,1
�n����ʂ�,3_1_1,2022/5/27,3:00,1,6
�n����ʂ�,3_1_1,2022/5/27,4:00,4,9
�n����ʂ�,3_1_1,2022/5/27,5:00,24,27
�n����ʂ�,3_1_1,2022/5/27,6:00,50,55
�n����ʂ�,3_1_1,2022/5/27,7:00,85,458
�n����ʂ�,3_1_1,2022/5/27,8:00,112,329
�n����ʂ�,3_1_1,2022/5/27,9:00,157,113
�n����ʂ�,3_1_1,2022/5/27,10:00,220,193
�n����ʂ�,3_1_1,2022/5/27,11:00,240,224